Weather History for KJKL - March, 2012

Change the Weather History Date:

Saturday, March 3, 2012

  Actual Average Record
Temperature  
Mean Temperature 44 °F 43 °F  
Max Temperature 53 °F 53 °F 80 °F (1992)
Min Temperature 34 °F 34 °F 9 °F (2009)
Degree Days  
Heating Degree Days 21 22  
Month to date heating degree days 38 67  
Since 1 July heating degree days 2859 3367  
Cooling Degree Days 0 0  
Month to date cooling degree days 0 0  
Year to date cooling degree days 0 0  
Moisture  
Dew Point 27 °F    
Average Humidity 53    
Maximum Humidity 82    
Minimum Humidity 24    
Precipitation  
Precipitation 0.00 in 0.13 in 1.82 in (1997)
Month to date precipitation 0.83 0.40  
Year to date precipitation 9.59 7.76  
Snow  
Snow 0.00 in 0.10 in 6.40 in (2014)
Month to date snowfall 0.0 0.4  
Since 1 July snowfall 9.7 20.0  
Snow Depth 0.00 in    
Sea Level Pressure  
Sea Level Pressure 29.81 in    
Wind  
Wind Speed 7 mph (West)    
Max Wind Speed 21 mph    
Max Gust Speed 30 mph    
Visibility 9 miles    
Events      
T = Trace of Precipitation, MM = Missing Value Source: NWS Daily Summary

Daily Weather History Graph

Daily Weather History Graph

Search for Another Location

Airport or City:

Trip Planner

Search our weather history database for the weather conditions in past years. The results will help you decide how hot, cold, wet, or windy it might be!

Date:

Astronomy

Mar. 03, 2012 Rise Set
Actual Time 7:01 AM EST 6:29 PM EST
Civil Twilight 6:34 AM EST 6:55 PM EST
Nautical Twilight 6:04 AM EST 7:26 PM EST
Astronomical Twilight 5:34 AM EST 7:56 PM EST
Moon 1:43 PM EST (3/3) 3:32 AM EST (3/3)
Length of Visible Light 12h 20m
Length of Day
11h 28m
Waxing Gibbous, 75% of the Moon is Illuminated
Mar 3
Waxing Gibbous
Mar 8
Full
Mar 14
Last Quarter
Mar 22
New
Mar 30
First Quarter

Hourly Weather History & Observations

Time (EST) Temp. Windchill Dew Point Humidity Pressure Visibility Wind Dir Wind Speed Gust Speed Precip Events Conditions
12:53 AM 48.0 °F - 35.1 °F 61% 29.70 in 10.0 mi WNW 10.4 mph 21.9 mph N/A   Overcast
1:53 AM 45.0 °F 38.5 °F 35.1 °F 68% 29.72 in 10.0 mi West 13.8 mph 19.6 mph N/A   Overcast
2:29 AM 42.8 °F 37.5 °F 35.6 °F 76% 29.75 in 10.0 mi WSW 9.2 mph - N/A   Overcast
2:53 AM 43.0 °F 40.3 °F 35.1 °F 74% 29.73 in 10.0 mi Variable 4.6 mph - N/A   Mostly Cloudy
3:32 AM 42.8 °F 38.6 °F 33.8 °F 70% 29.76 in 10.0 mi West 6.9 mph - N/A   Mostly Cloudy
3:53 AM 41.0 °F 35.8 °F 33.1 °F 73% 29.75 in 10.0 mi NW 8.1 mph - N/A   Scattered Clouds
4:53 AM 39.0 °F 35.7 °F 30.9 °F 73% 29.79 in 10.0 mi West 4.6 mph - N/A   Clear
5:53 AM 37.0 °F 31.6 °F 28.9 °F 73% 29.82 in 10.0 mi WNW 6.9 mph 16.1 mph N/A   Partly Cloudy
6:53 AM 35.1 °F 30.1 °F 28.9 °F 78% 29.83 in 10.0 mi West 5.8 mph - N/A   Clear
7:10 AM 35.6 °F 32.8 °F 28.4 °F 75% 29.84 in 0.2 mi WSW 3.5 mph - N/A   Haze
7:53 AM 35.1 °F - 30.0 °F 82% 29.86 in 0.2 mi Calm Calm - N/A   Haze
7:56 AM 35.6 °F 30.7 °F 30.2 °F 81% 29.86 in 3.0 mi SW 5.8 mph - N/A   Haze
8:53 AM 39.0 °F 35.7 °F 30.0 °F 70% 29.88 in 10.0 mi Variable 4.6 mph - N/A   Clear
9:53 AM 43.0 °F 40.3 °F 30.0 °F 60% 29.88 in 10.0 mi Variable 4.6 mph - N/A   Clear
10:53 AM 45.0 °F 39.7 °F 26.1 °F 48% 29.86 in 10.0 mi WNW 10.4 mph 17.3 mph N/A   Clear
11:53 AM 48.0 °F - 25.0 °F 41% 29.85 in 10.0 mi West 11.5 mph 19.6 mph N/A   Clear
12:53 PM 51.1 °F - 19.9 °F 29% 29.83 in 10.0 mi SW 9.2 mph 23.0 mph N/A   Clear
1:53 PM 52.0 °F - 19.9 °F 28% 29.80 in 10.0 mi WSW 11.5 mph 20.7 mph N/A   Clear
2:53 PM 53.1 °F - 18.0 °F 25% 29.78 in 10.0 mi West 13.8 mph 20.7 mph N/A   Clear
3:53 PM 51.1 °F - 19.0 °F 28% 29.76 in 10.0 mi WNW 11.5 mph 18.4 mph N/A   Clear
4:53 PM 50.0 °F - 18.0 °F 28% 29.78 in 10.0 mi WSW 6.9 mph 16.1 mph N/A   Clear
5:53 PM 48.0 °F - 19.0 °F 32% 29.79 in 10.0 mi WNW 6.9 mph - N/A   Clear
6:53 PM 45.0 °F 42.6 °F 21.0 °F 39% 29.81 in 10.0 mi WNW 4.6 mph - N/A   Clear
7:53 PM 44.1 °F 39.5 °F 21.0 °F 40% 29.83 in 10.0 mi West 8.1 mph - N/A   Clear
8:53 PM 43.0 °F 40.3 °F 21.0 °F 42% 29.82 in 10.0 mi WNW 4.6 mph - N/A   Clear
9:53 PM 41.0 °F 38.0 °F 21.9 °F 47% 29.85 in 10.0 mi Variable 4.6 mph - N/A   Clear
10:53 PM 37.9 °F 34.4 °F 25.0 °F 60% 29.86 in 10.0 mi NW 4.6 mph - N/A   Clear
11:53 PM 37.0 °F 33.3 °F 24.1 °F 59% 29.86 in 10.0 mi NW 4.6 mph - N/A   Mostly Cloudy